EKRAN 20

Satellite information

Favourite Embed

Satellite Type and Status

PAYLOADIN ORBIT

Key statistics

Satellite EKRAN 20 at a glance.

Uptime

12056

Days in orbit

Revolutions

≈ 1.0

Per day

Orbit

OTHER

Other

Inclination

13.8

Latest

Satellite identification and parameters

Extended collection of information and parameters for EKRAN 20.

Object identification

Identified? True

Debris? False

Object name: EKRAN 20

International designator: 1992-074A

Object number (NORAD): 22210

Object ID (CCSDS): 22210

Country: COMMONWEALTH OF INDEPENDENT STATES (CIS)

Current information (Y/N): Y

RCS size: LARGE

Orbital parameters

Period: 1436.714 minutes

Inclination: 13.8229 deg

SMA: 42176.819 km

Apoapsis: 35827.275 km

Periapsis: 35770.093 km

RAAN: 345.9557 deg

Eccentricy: 0.00067789

Argument of periapsis: 213.5836 deg

Mean anomaly: 124.5213 deg

Mean motion: 1.00228684 rev/day

Mean motion (dot): 0.00000035 rev/day2

B* drag term: 0.0 1/REarth

Two-line elements (TLE)

Creation date: Nov. 1, 2025, 7:40 p.m.

Reference frame: TEME

Reference center: EARTH

Epoch: Nov. 1, 2025, 2:49 p.m. UTC

TLE line 0: 0 EKRAN 20

TLE line 1: 1 22210U 92074A 25305.61802722 .00000035 00000-0 00000-0 0 9990

TLE line 2: 2 22210 13.8229 345.9557 0006779 213.5836 124.5213 1.00228684 45085

Live tracking on map

Real-time ground track for satellite EKRAN 20.

In-orbit conjunctions

A list of the most updated potential collisions computed for object EKRAN 20.

Target Orbit TCA Probability of collision Miss distance Type
ELEKTRO (GOMS) OTHER 2025-09-19 22:46:38 TBA 2254.0 (m) PAYLOAD
COSMOS 1961 OTHER 2025-08-20 11:39:33 TBA 4756.0 (m) PAYLOAD
BREEZE-M R/B OTHER 2024-11-19 07:32:42 TBA 4438.0 (m) ROCKET BODY
RADUGA 5 OTHER 2024-09-12 20:00:58 TBA 2522.0 (m) PAYLOAD
LUCH 1 OTHER 2024-07-05 05:15:21 TBA 4946.0 (m) PAYLOAD

Associated space launch

Direct broadcasting satellite

EKRAN 20 was lifted into orbit during the mission ‘Proton | Ekran-M 3’, on board a Proton space rocket.

The launch took place on Oct. 30, 1992, 2:59 p.m. from 81/23 (81L).

For more information about the launch, click the button.

Launch to space Proton | Ekran-M 3
Proton | Ekran-M 3

Agency: N/A

Status: Launch Successful

Launch date: Oct. 30, 1992, 2:59 p.m. UTC

Rocket: Proton

Launch pad: 81/23 (81L)

Location: Baikonur Cosmodrome, Republic of Kazakhstan

...

Latest news about this satellite

There are no fresh news available about this satellite. Check back as we update our databases every day.


Newsletter sign-up

Weekly statistics, charts and insights to help you stay on top of the space industry.